Location: Boiro
(42.6475°N, 8.8834°W)
Time: 17:51:22
(UTC+01:00)

Explorer 7 - Pass Details

Date: 30 November 2021
Orbit: 483 x 674 km, 50.3° (Epoch: 20 January)

Event Time Altitude Azimuth Distance (km) Brightness Sun altitude
Rises 14:17:09 0° 300° (WNW) 2,585 10.1 24.5°
Reaches altitude 10° 14:19:21 10° 299° (WNW) 1,684 9.2 24.4°
Maximum altitude 14:23:08 79° 213° (SSW) 497 7.2 24.2°
Drops below altitude 10° 14:26:52 10° 127° (SE) 1,657 9.6 24.0°
Sets 14:29:01 0° 126° (SE) 2,540 10.5 23.9°
